Regional Weather Roundup
Issued by NWS State College, PA

Home | Current Version | Previous Version | Text Only | Print | Product List | Glossary Off
Versions: 1 2 3 4 5 6 7 8 9 10 11 12 13 14 15 16 17 18 19 20 21 22 23 24 25 26 27 28 29 30 31 32 33 34 35 36 37 38 39 40 41 42 43 44 45 46 47 48 49 50

000
ASUS41 KCTP 201010
RWRCTP

REGIONAL WEATHER ROUNDUP
NATIONAL WEATHER SERVICE STATE COLLEGE PA
600 AM EDT MON OCT 20 2014

Note: "fair" indicates few or no clouds below 12,000 feet with no
significant weather and/or obstructions to visibility.

* = STATION THAT DOES NOT REPORT PRECIPITATION /E.G. RAIN...SNOW...ETC/
    THUNDER OR FOG.

PAZ002>004-007>009-013>016-020>023-029>032-201100-
WESTERN PENNSYLVANIA

CITY           SKY/WX    TMP DP  RH WIND       PRES   REMARKS
ERIE           MOCLDY    46  34  62 S9        29.95F
MEADVILLE      MOCLDY    43  34  70 S5        29.97F
FRANKLIN*      CLOUDY    41  34  75 S7        30.00F
NEW CASTLE       N/A     43  37  79 CALM      30.02F
BEAVER COUNTY  NOT AVBL
BUTLER*        MOCLDY    43  34  70 S6        30.04S
PITTSBURGH INT CLOUDY    43  36  76 S5        30.02F
PITTSBURGH     MOCLDY    41  32  70 S8        30.02F
INDIANA*       CLEAR     41  36  81 CALM      30.07F
LATROBE        CLEAR     39  37  93 CALM      30.05F
WASHINGTON CO* MOCLDY    37  34  87 CALM      30.04F
$$

PAZ004>006-010>012-017>019-024>028-033>037-041-042-045-046-049>053-201100-
CENTRAL PENNSYLVANIA

CITY           SKY/WX    TMP DP  RH WIND       PRES   REMARKS
BRADFORD       CLOUDY    39  31  72 SW3       29.98F
DUBOIS         CLOUDY    40  34  79 SW5       30.00F
CLEARFIELD     CLOUDY    38  34  85 S5        30.03S
JOHNSTOWN      CLOUDY    40  32  73 SW5       30.02S
ALTOONA        MOCLDY    43  35  73 S9        30.05S
STATE COLLEGE  CLOUDY    41  37  87 CALM      30.04S
WILLIAMSPORT   PTCLDY    35  30  82 CALM      30.06F
SELINSGROVE    PTCLDY    36  34  92 CALM      30.08S
FT INDIANTOWN  CLEAR     33  33 100 NE1       30.09S
CAPITAL CITY   CLEAR     37  34  89 CALM      30.08F
HARRISBURG     PTCLDY    37  34  89 NE5       30.08S
YORK           CLEAR     32  31  96 CALM      30.08F
$$

PAZ038>040-043-044-047-048-054-055-060>062-067>071-201100-
EASTERN PENNSYLVANIA

CITY           SKY/WX    TMP DP  RH WIND       PRES   REMARKS
SCRANTON       MOCLDY    34  29  82 E5        30.05F
MOUNT POCONO   MOCLDY    33  27  78 W3        30.03S
ALLENTOWN      PTCLDY    34  29  82 CALM      30.09S
QUAKERTOWN*    SUNNY     30  28  93 CALM      30.10R
READING        CLEAR     37  32  82 CALM      30.09S
LANCASTER      CLEAR     35  33  92 CALM      30.09S
COATESVILLE    SUNNY     37  32  81 CALM      30.10S
POTTSTOWN      CLEAR     32  29  88 CALM      30.12R
BLUE BELL      CLEAR     32  32 100 CALM      30.10S
DOYLESTOWN     CLEAR     33  30  88 CALM      30.10R
WILLOW GROVE   NOT AVBL
NORTH PHILA    CLEAR     36  30  79 CALM      30.13R
PHILADELPHIA   PTCLDY    42  32  67 S5        30.13R
$$



USA.gov is the U.S. government's official web portal to all federal, state and local government web resources and services.